This is the latest recevied weather packets stored in our database for station/object KQ4PPF. If no packets are shown the sender has not sent any weather packets the latest 10 day(s).
| Time | Temp. | Humidity | Pressure | Rain* | Wind** | Luminosity | Snow |
|---|---|---|---|---|---|---|---|
| 1777993044 | 21.11° C | 61% | 1014.6 hPa | 0 mm | - | 723 W/m² | - |
| 1777992743 | 21.11° C | 62% | 1014.7 hPa | 0 mm | - | 647 W/m² | - |
| 1777992440 | 21.67° C | 60% | 1015 hPa | 0 mm | - | 473 W/m² | - |
| 1777992138 | 21.11° C | 61% | 1014.8 hPa | 0 mm | - | 696 W/m² | - |
| 1777991835 | 20° C | 65% | 1015 hPa | 0 mm | - | 705 W/m² | - |
| 1777991532 | 19.44° C | 66% | 1014.6 hPa | 0 mm | - | 670 W/m² | - |
| 1777991229 | 19.44° C | 65% | 1014.7 hPa | 0 mm | - | 522 W/m² | - |
| 1777990926 | 18.89° C | 66% | 1014.7 hPa | 0 mm | - | 324 W/m² | - |
| 1777990624 | 18.89° C | 68% | 1014.6 hPa | 0 mm | - | 154 W/m² | - |
| 1777990017 | 18.89° C | 67% | 1014.5 hPa | 0 mm | - | 143 W/m² | - |
| 1777989714 | 18.33° C | 67% | 1014.7 hPa | 0 mm | - | 151 W/m² | - |
| 1777989410 | 18.33° C | 68% | 1014.9 hPa | 0 mm | - | 143 W/m² | - |
| 1777989106 | 17.78° C | 69% | 1014.9 hPa | 0 mm | - | 145 W/m² | - |
| 1777988802 | 17.22° C | 69% | 1014.8 hPa | 0 mm | - | 121 W/m² | - |
| 1777988500 | 17.78° C | 68% | 1014.9 hPa | 0 mm | - | 125 W/m² | - |
| 1777988197 | 17.22° C | 67% | 1014.6 hPa | 0 mm | - | 133 W/m² | - |
| 1777987893 | 17.22° C | 68% | 1014.8 hPa | 0 mm | - | 135 W/m² | - |
| 1777987589 | 17.22° C | 70% | 1014.7 hPa | 0 mm | - | 124 W/m² | - |
| 1777987287 | 17.22° C | 69% | 1014.6 hPa | 0 mm | - | 104 W/m² | - |
| 1777986983 | 17.22° C | 69% | 1015.1 hPa | 0 mm | - | 138 W/m² | - |
| 1777986681 | 17.22° C | 71% | 1014.9 hPa | 0 mm | - | 81 W/m² | - |
| 1777986379 | 16.67° C | 74% | 1015.1 hPa | 0 mm | - | 81 W/m² | - |
| 1777986078 | 16.11° C | 72% | 1014.9 hPa | 0 mm | - | 96 W/m² | - |
| 1777985773 | 16.11° C | 74% | 1014.8 hPa | 0 mm | - | 82 W/m² | - |
| 1777985471 | 15.56° C | 77% | 1014.7 hPa | 0 mm | - | 96 W/m² | - |
* Rain latest hour (hover to see other rain measurements)
** Current wind speed in m/s (hover to see current wind gust speed)